Location: Boiro
(42.6475°N, 8.8834°W)
Time: 18:15:47
(UTC+01:00)

Tiros 1 despin weight - Pass Details

Date: 01 December 2021
Orbit: 592 x 641 km, 48.2° (Epoch: 20 January)

Event Time Altitude Azimuth Distance (km) Brightness Sun altitude
Rises 15:30:13 0° 229° (SW) 2,825 ? 19.3°
Reaches altitude 10° 15:32:32 10° 226° (SW) 1,921 ? 19.1°
Maximum altitude 15:36:50 57° 148° (SSE) 697 ? 18.6°
Drops below altitude 10° 15:41:09 10° 69° (ENE) 1,922 ? 18.2°
Sets 15:43:28 0° 66° (ENE) 2,826 ? 18.0°
